P/2018 VN2 ( Leonard )

Japanese version
Home page
Updated on November 19, 2018

---------------------------------------------------------------------

* Profile

Discovery Date November 5, 2018
Magnitude 19.0 mag
Discoverer G. J. Leonard (Mount Lemmon)

* Orbital Elements

T 2018 June 7.17028 TT                                  MPCW
q   2.1136940            (2000.0)            P               Q
n   0.12151287     Peri.  139.13693     +0.97218313     -0.06912872
a   4.0369609      Node   226.36907     +0.02786230     +0.98280169
e   0.4764145      Incl.   18.01015     +0.23255893     +0.17123685
P   8.11
From 41 observations 2018 Nov. 5-17.

* Magnitudes Graph

        m1 = 14.5 + 5 log d + 10.0 log r

---------------------------------------------------------------------

The orbital elements are published on M.P.E.C. 2018-W18.
The magnitudes graphs are made with Comet for Windows.

---------------------------------------------------------------------

Copyright(C) Seiichi Yoshida (comet@aerith.net). All rights reserved.